Time,TemperatureF,DewpointF,PressureIn,WindDirection,WindDirectionDegrees,WindSpeedMPH,WindSpeedGustMPH,Humidity,HourlyPrecipIn,Conditions,Clouds,dailyrainin,SoftwareType,DateUTC
2013-05-16 00:03:00,65.7,41.3,29.88,SSE,158,0.0,0.0,41,0.00,,---,0.00,VWS V14.01,2013-05-16 05:03:00,
2013-05-16 00:08:00,65.5,41.2,29.88,WNW,292,2.7,2.7,41,0.00,,---,0.00,VWS V14.01,2013-05-16 05:08:00,
2013-05-16 00:14:00,65.7,42.0,29.91,West,270,0.0,0.0,42,0.00,,---,0.00,VWS V14.01,2013-05-16 05:14:00,
2013-05-16 00:19:00,65.5,41.2,29.91,WNW,292,0.0,0.0,41,0.00,,---,0.00,VWS V14.01,2013-05-16 05:19:00,
2013-05-16 00:25:00,65.5,41.2,29.91,WNW,292,0.0,0.0,41,0.00,,---,0.00,VWS V14.01,2013-05-16 05:25:00,
2013-05-16 00:30:00,65.5,41.2,29.91,WSW,248,0.0,0.0,41,0.00,,---,0.00,VWS V14.01,2013-05-16 05:30:00,
2013-05-16 00:35:00,65.1,40.9,29.91,WNW,292,0.0,0.0,41,0.00,,---,0.00,VWS V14.01,2013-05-16 05:35:00,
2013-05-16 00:41:00,64.9,41.3,29.91,WNW,292,0.0,0.0,42,0.00,,---,0.00,VWS V14.01,2013-05-16 05:41:00,
2013-05-16 00:46:00,64.6,41.0,29.91,WNW,292,0.0,0.0,42,0.00,,---,0.00,VWS V14.01,2013-05-16 05:46:00,
2013-05-16 00:51:00,64.4,40.8,29.91,WNW,292,0.0,0.0,42,0.00,,---,0.00,VWS V14.01,2013-05-16 05:51:00,
2013-05-16 00:56:00,64.2,41.3,29.91,WNW,292,0.0,0.0,43,0.00,,---,0.00,VWS V14.01,2013-05-16 05:56:00,
2013-05-16 01:01:00,63.9,41.0,29.91,WNW,292,0.0,0.0,43,0.00,,---,0.00,VWS V14.01,2013-05-16 06:01:00,
2013-05-16 01:06:00,63.7,41.4,29.91,South,180,0.0,0.9,44,0.00,,---,0.00,VWS V14.01,2013-05-16 06:06:00,
2013-05-16 01:11:00,63.5,41.2,29.91,South,180,0.0,0.0,44,0.00,,---,0.00,VWS V14.01,2013-05-16 06:11:00,
2013-05-16 01:16:00,63.5,41.2,29.91,South,180,0.0,0.0,44,0.00,,---,0.00,VWS V14.01,2013-05-16 06:16:00,
2013-05-16 01:22:00,63.1,40.9,29.91,South,180,0.0,0.0,44,0.00,,---,0.00,VWS V14.01,2013-05-16 06:22:00,
2013-05-16 01:27:00,63.0,40.7,29.91,SW,225,0.0,0.0,44,0.00,,---,0.00,VWS V14.01,2013-05-16 06:27:00,
2013-05-16 01:32:00,62.8,40.6,29.91,South,180,0.0,0.0,44,0.00,,---,0.00,VWS V14.01,2013-05-16 06:32:00,
2013-05-16 01:37:00,62.6,40.4,29.91,South,180,0.0,0.0,44,0.00,,---,0.00,VWS V14.01,2013-05-16 06:37:00,
2013-05-16 01:42:00,62.4,40.8,29.91,South,180,0.0,0.0,45,0.00,,---,0.00,VWS V14.01,2013-05-16 06:42:00,
2013-05-16 01:47:00,62.2,40.7,29.91,South,180,0.0,0.0,45,0.00,,---,0.00,VWS V14.01,2013-05-16 06:47:00,
2013-05-16 01:52:00,62.2,41.2,29.91,South,180,0.0,0.0,46,0.00,,---,0.00,VWS V14.01,2013-05-16 06:52:00,
2013-05-16 01:57:00,62.1,41.1,29.91,South,180,0.0,0.0,46,0.00,,---,0.00,VWS V14.01,2013-05-16 06:57:00,
2013-05-16 02:02:00,61.9,40.9,29.91,South,180,0.0,0.0,46,0.00,,---,0.00,VWS V14.01,2013-05-16 07:02:00,
2013-05-16 02:07:00,61.9,40.9,29.91,South,180,0.0,0.0,46,0.00,,---,0.00,VWS V14.01,2013-05-16 07:07:00,
2013-05-16 02:12:00,61.9,40.9,29.91,South,180,0.0,0.0,46,0.00,,---,0.00,VWS V14.01,2013-05-16 07:12:00,
2013-05-16 02:17:00,61.9,40.9,29.91,South,180,0.0,0.0,46,0.00,,---,0.00,VWS V14.01,2013-05-16 07:17:00,
2013-05-16 02:22:00,61.7,41.3,29.91,South,180,0.0,0.0,47,0.00,,---,0.00,VWS V14.01,2013-05-16 07:22:00,
2013-05-16 02:27:00,61.7,41.3,29.91,South,180,0.0,0.0,47,0.00,,---,0.00,VWS V14.01,2013-05-16 07:27:00,
2013-05-16 02:32:00,61.5,41.1,29.91,South,180,0.0,0.0,47,0.00,,---,0.00,VWS V14.01,2013-05-16 07:32:00,
2013-05-16 02:37:00,61.3,41.0,29.91,South,180,1.6,2.0,47,0.00,,---,0.00,VWS V14.01,2013-05-16 07:37:00,
2013-05-16 02:42:00,61.3,41.0,29.91,South,180,0.0,0.9,47,0.00,,---,0.00,VWS V14.01,2013-05-16 07:42:00,
2013-05-16 02:47:00,61.2,40.8,29.91,South,180,0.0,0.0,47,0.00,,---,0.00,VWS V14.01,2013-05-16 07:47:00,
2013-05-16 02:52:00,61.2,40.8,29.91,South,180,0.0,2.2,47,0.00,,---,0.00,VWS V14.01,2013-05-16 07:52:00,
2013-05-16 02:57:00,61.2,40.8,29.91,NW,315,0.0,0.0,47,0.00,,---,0.00,VWS V14.01,2013-05-16 07:57:00,
2013-05-16 03:02:00,61.0,40.6,29.91,South,180,1.6,1.6,47,0.00,,---,0.00,VWS V14.01,2013-05-16 08:02:00,
2013-05-16 03:08:00,60.8,41.0,29.91,South,180,1.3,1.6,48,0.00,,---,0.00,VWS V14.01,2013-05-16 08:08:00,
2013-05-16 03:13:00,60.6,40.8,29.91,South,180,0.0,0.0,48,0.00,,---,0.00,VWS V14.01,2013-05-16 08:13:00,
2013-05-16 03:18:00,60.4,40.7,29.91,South,180,0.0,0.0,48,0.00,,---,0.00,VWS V14.01,2013-05-16 08:18:00,
2013-05-16 03:24:00,60.3,41.0,29.91,South,180,0.0,0.0,49,0.00,,---,0.00,VWS V14.01,2013-05-16 08:24:00,
2013-05-16 03:29:00,60.3,41.0,29.91,South,180,0.0,0.0,49,0.00,,---,0.00,VWS V14.01,2013-05-16 08:29:00,
2013-05-16 03:34:00,60.1,40.9,29.91,South,180,0.0,0.9,49,0.00,,---,0.00,VWS V14.01,2013-05-16 08:34:00,
2013-05-16 07:46:00,60.8,45.0,29.94,NNW,338,0.9,0.9,56,0.00,,---,0.00,VWS V14.01,2013-05-16 12:46:00,
2013-05-16 07:52:00,61.3,45.5,29.94,NW,315,0.0,0.0,56,0.00,,---,0.00,VWS V14.01,2013-05-16 12:52:00,
2013-05-16 07:58:00,61.9,46.0,29.94,WNW,292,1.6,1.6,56,0.00,,---,0.00,VWS V14.01,2013-05-16 12:58:00,
2013-05-16 08:03:00,63.0,46.6,29.94,North,0,0.0,0.0,55,0.00,,---,0.00,VWS V14.01,2013-05-16 13:03:00,
2013-05-16 08:09:00,63.7,46.7,29.94,NNE,22,1.1,2.7,54,0.00,,---,0.00,VWS V14.01,2013-05-16 13:09:00,
2013-05-16 08:14:00,64.4,46.9,29.94,ENE,68,0.0,2.2,53,0.00,,---,0.00,VWS V14.01,2013-05-16 13:14:00,
2013-05-16 08:19:00,64.9,46.4,29.94,NE,45,2.5,3.6,51,0.00,,---,0.00,VWS V14.01,2013-05-16 13:19:00,
2013-05-16 08:24:00,65.5,46.9,29.94,SE,135,2.9,2.9,51,0.00,,---,0.00,VWS V14.01,2013-05-16 13:24:00,
2013-05-16 08:30:00,66.0,46.9,29.94,NE,45,3.8,3.8,50,0.00,,---,0.00,VWS V14.01,2013-05-16 13:30:00,
2013-05-16 08:35:00,66.4,46.1,29.94,East,90,0.0,3.6,48,0.00,,---,0.00,VWS V14.01,2013-05-16 13:35:00,
2013-05-16 08:40:00,66.9,46.6,29.94,NE,45,4.3,4.3,48,0.00,,---,0.00,VWS V14.01,2013-05-16 13:40:00,
2013-05-16 08:45:00,67.5,46.5,29.94,NE,45,2.0,2.0,47,0.00,,---,0.00,VWS V14.01,2013-05-16 13:45:00,
2013-05-16 08:50:00,68.4,46.8,29.94,NE,45,2.9,2.9,46,0.00,,---,0.00,VWS V14.01,2013-05-16 13:50:00,
2013-05-16 08:56:00,68.7,46.5,29.94,NNE,22,4.3,4.3,45,0.00,,---,0.00,VWS V14.01,2013-05-16 13:56:00,
2013-05-16 09:02:00,69.4,46.0,29.94,East,90,0.9,3.6,43,0.00,,---,0.00,VWS V14.01,2013-05-16 14:02:00,
2013-05-16 09:07:00,70.3,46.8,29.94,NE,45,0.0,2.2,43,0.00,,---,0.00,VWS V14.01,2013-05-16 14:07:00,
2013-05-16 09:13:00,70.9,46.7,29.94,NE,45,2.5,2.7,42,0.00,,---,0.00,VWS V14.01,2013-05-16 14:13:00,
2013-05-16 09:18:00,71.4,47.2,29.94,ENE,68,1.6,3.6,42,0.00,,---,0.00,VWS V14.01,2013-05-16 14:18:00,
2013-05-16 09:23:00,72.0,46.3,29.94,East,90,1.1,3.4,40,0.00,,---,0.00,VWS V14.01,2013-05-16 14:23:00,
2013-05-16 09:28:00,72.1,46.5,29.97,NNE,22,0.9,3.4,40,0.00,,---,0.00,VWS V14.01,2013-05-16 14:28:00,
2013-05-16 09:33:00,72.7,46.3,29.97,NE,45,2.7,3.1,39,0.00,,---,0.00,VWS V14.01,2013-05-16 14:33:00,
2013-05-16 09:39:00,72.7,43.5,29.97,ENE,68,0.0,3.1,35,0.00,,---,0.00,VWS V14.01,2013-05-16 14:39:00,
2013-05-16 09:44:00,73.0,43.8,29.97,East,90,0.9,3.1,35,0.00,,---,0.00,VWS V14.01,2013-05-16 14:44:00,
2013-05-16 09:50:00,73.6,43.5,29.97,North,0,1.3,2.7,34,0.00,,---,0.00,VWS V14.01,2013-05-16 14:50:00,
2013-05-16 09:55:00,73.8,42.9,29.97,SE,135,3.6,3.8,33,0.00,,---,0.00,VWS V14.01,2013-05-16 14:55:00,
2013-05-16 10:00:00,73.9,43.0,29.97,ENE,68,3.8,3.8,33,0.00,,---,0.00,VWS V14.01,2013-05-16 15:00:00,
2013-05-16 10:06:00,74.3,43.4,29.97,SE,135,4.0,4.0,33,0.00,,---,0.00,VWS V14.01,2013-05-16 15:06:00,
2013-05-16 10:12:00,74.5,42.7,29.97,SE,135,4.9,4.9,32,0.00,,---,0.00,VWS V14.01,2013-05-16 15:12:00,
2013-05-16 10:17:00,74.5,42.7,29.97,East,90,2.7,4.0,32,0.00,,---,0.00,VWS V14.01,2013-05-16 15:17:00,
2013-05-16 10:23:00,74.3,42.6,29.97,ESE,112,1.1,5.4,32,0.00,,---,0.00,VWS V14.01,2013-05-16 15:23:00,
2013-05-16 10:28:00,74.1,42.4,29.97,ENE,68,1.6,3.4,32,0.00,,---,0.00,VWS V14.01,2013-05-16 15:28:00,
2013-05-16 10:34:00,74.3,42.6,29.97,NE,45,6.0,6.0,32,0.00,,---,0.00,VWS V14.01,2013-05-16 15:34:00,
2013-05-16 10:39:00,74.3,42.6,29.97,ENE,68,2.5,3.8,32,0.00,,---,0.00,VWS V14.01,2013-05-16 15:39:00,
2013-05-16 10:45:00,74.8,43.0,29.97,SSE,158,3.8,3.8,32,0.00,,---,0.00,VWS V14.01,2013-05-16 15:45:00,
2013-05-16 10:50:00,75.2,42.5,29.97,East,90,3.8,3.8,31,0.00,,---,0.00,VWS V14.01,2013-05-16 15:50:00,
2013-05-16 10:56:00,75.4,42.7,29.97,SE,135,2.9,4.0,31,0.00,,---,0.00,VWS V14.01,2013-05-16 15:56:00,
2013-05-16 11:02:00,75.9,43.1,29.97,SSE,158,4.3,4.3,31,0.00,,---,0.00,VWS V14.01,2013-05-16 16:02:00,
2013-05-16 11:07:00,76.6,43.8,29.97,South,180,6.0,6.5,31,0.00,,---,0.00,VWS V14.01,2013-05-16 16:07:00,
2013-05-16 11:12:00,77.4,44.4,29.97,SSW,202,2.2,2.9,31,0.00,,---,0.00,VWS V14.01,2013-05-16 16:12:00,
2013-05-16 11:18:00,77.9,44.0,29.97,ESE,112,1.6,4.0,30,0.00,,---,0.00,VWS V14.01,2013-05-16 16:18:00,
2013-05-16 11:24:00,78.3,44.3,29.97,NE,45,2.0,3.1,30,0.00,,---,0.00,VWS V14.01,2013-05-16 16:24:00,
2013-05-16 11:29:00,78.6,44.6,29.94,NNE,22,1.6,3.4,30,0.00,,---,0.00,VWS V14.01,2013-05-16 16:29:00,
2013-05-16 11:34:00,79.2,45.1,29.94,NE,45,7.2,7.2,30,0.00,,---,0.00,VWS V14.01,2013-05-16 16:34:00,
2013-05-16 11:39:00,79.5,45.4,29.94,NE,45,2.5,2.9,30,0.00,,---,0.00,VWS V14.01,2013-05-16 16:39:00,
2013-05-16 11:45:00,80.1,45.0,29.94,NNE,22,2.9,7.8,29,0.00,,---,0.00,VWS V14.01,2013-05-16 16:45:00,
2013-05-16 11:50:00,80.8,45.6,29.94,NE,45,2.0,2.0,29,0.00,,---,0.00,VWS V14.01,2013-05-16 16:50:00,
2013-05-16 11:56:00,81.5,44.3,29.94,ESE,112,4.0,4.0,27,0.00,,---,0.00,VWS V14.01,2013-05-16 16:56:00,
2013-05-16 12:01:00,82.6,45.2,29.94,NE,45,2.7,3.4,27,0.00,,---,0.00,VWS V14.01,2013-05-16 17:01:00,
2013-05-16 12:08:00,82.8,43.4,29.94,NE,45,2.5,3.4,25,0.00,,---,0.00,VWS V14.01,2013-05-16 17:08:00,
2013-05-16 12:13:00,83.1,43.7,29.94,NNE,22,2.5,2.9,25,0.00,,---,0.00,VWS V14.01,2013-05-16 17:13:00,
2013-05-16 12:19:00,83.7,43.1,29.94,East,90,2.7,6.5,24,0.00,,---,0.00,VWS V14.01,2013-05-16 17:19:00,
2013-05-16 12:24:00,82.9,41.4,29.94,ESE,112,1.6,2.9,23,0.00,,---,0.00,VWS V14.01,2013-05-16 17:24:00,
2013-05-16 12:29:00,83.5,41.8,29.94,NE,45,3.8,4.3,23,0.00,,---,0.00,VWS V14.01,2013-05-16 17:29:00,
2013-05-16 12:36:00,82.2,40.8,29.94,NE,45,4.7,8.7,23,0.00,,---,0.00,VWS V14.01,2013-05-16 17:36:00,
2013-05-16 12:41:00,82.8,41.2,29.94,ENE,68,2.5,6.7,23,0.00,,---,0.00,VWS V14.01,2013-05-16 17:41:00,
2013-05-16 12:47:00,83.7,42.0,29.94,NE,45,2.7,4.3,23,0.00,,---,0.00,VWS V14.01,2013-05-16 17:47:00,
2013-05-16 12:52:00,83.5,40.7,29.94,North,0,2.2,5.4,22,0.00,,---,0.00,VWS V14.01,2013-05-16 17:52:00,
2013-05-16 12:57:00,83.5,40.7,29.94,NNE,22,1.6,3.8,22,0.00,,---,0.00,VWS V14.01,2013-05-16 17:57:00,
2013-05-16 13:02:00,83.7,40.8,29.94,NE,45,4.0,5.8,22,0.00,,---,0.00,VWS V14.01,2013-05-16 18:02:00,
2013-05-16 13:08:00,83.1,40.4,29.94,NE,45,3.4,5.8,22,0.00,,---,0.00,VWS V14.01,2013-05-16 18:08:00,
2013-05-16 13:13:00,82.0,39.5,29.94,SE,135,2.7,4.3,22,0.00,,---,0.00,VWS V14.01,2013-05-16 18:13:00,
2013-05-16 13:19:00,82.4,39.8,29.94,SSE,158,2.2,4.0,22,0.00,,---,0.00,VWS V14.01,2013-05-16 18:19:00,
2013-05-16 13:25:00,83.3,40.5,29.94,East,90,2.9,2.9,22,0.00,,---,0.00,VWS V14.01,2013-05-16 18:25:00,
2013-05-16 13:30:00,83.5,40.7,29.94,NNE,22,2.5,4.0,22,0.00,,---,0.00,VWS V14.01,2013-05-16 18:30:00,
2013-05-16 13:36:00,83.8,41.0,29.94,NE,45,3.1,3.8,22,0.00,,---,0.00,VWS V14.01,2013-05-16 18:36:00,
2013-05-16 13:41:00,84.2,40.1,29.94,ENE,68,3.4,3.4,21,0.00,,---,0.00,VWS V14.01,2013-05-16 18:41:00,
2013-05-16 13:47:00,84.4,40.2,29.94,ESE,112,3.6,5.4,21,0.00,,---,0.00,VWS V14.01,2013-05-16 18:47:00,
2013-05-16 13:53:00,84.6,40.4,29.94,NE,45,6.3,8.7,21,0.00,,---,0.00,VWS V14.01,2013-05-16 18:53:00,
2013-05-16 13:58:00,85.1,40.8,29.94,NE,45,3.1,6.3,21,0.00,,---,0.00,VWS V14.01,2013-05-16 18:58:00,
2013-05-16 14:03:00,84.9,40.7,29.94,South,180,3.4,3.6,21,0.00,,---,0.00,VWS V14.01,2013-05-16 19:03:00,
2013-05-16 14:09:00,84.7,39.3,29.94,ENE,68,3.6,7.8,20,0.00,,---,0.00,VWS V14.01,2013-05-16 19:09:00,
2013-05-16 14:14:00,84.6,39.1,29.94,SSE,158,2.2,2.5,20,0.00,,---,0.00,VWS V14.01,2013-05-16 19:14:00,
2013-05-16 14:19:00,84.2,38.8,29.94,SE,135,3.4,3.4,20,0.00,,---,0.00,VWS V14.01,2013-05-16 19:19:00,
2013-05-16 14:25:00,84.0,39.9,29.94,NW,315,2.9,5.4,21,0.00,,---,0.00,VWS V14.01,2013-05-16 19:25:00,
2013-05-16 14:30:00,83.3,39.3,29.94,NE,45,1.3,3.1,21,0.00,,---,0.00,VWS V14.01,2013-05-16 19:30:00,
2013-05-16 14:36:00,83.5,39.5,29.94,SSW,202,2.2,2.7,21,0.00,,---,0.00,VWS V14.01,2013-05-16 19:36:00,
2013-05-16 14:42:00,82.8,38.9,29.94,North,0,3.1,3.1,21,0.00,,---,0.00,VWS V14.01,2013-05-16 19:42:00,
2013-05-16 14:47:00,82.8,38.9,29.94,NE,45,1.6,2.9,21,0.00,,---,0.00,VWS V14.01,2013-05-16 19:47:00,
2013-05-16 14:52:00,82.6,38.7,29.94,North,0,3.1,6.0,21,0.00,,---,0.00,VWS V14.01,2013-05-16 19:52:00,
2013-05-16 14:57:00,82.4,38.6,29.94,North,0,3.8,3.8,21,0.00,,---,0.00,VWS V14.01,2013-05-16 19:57:00,
2013-05-16 15:02:00,82.6,38.7,29.94,East,90,2.5,2.5,21,0.00,,---,0.00,VWS V14.01,2013-05-16 20:02:00,
2013-05-16 15:08:00,82.8,38.9,29.94,ENE,68,6.0,6.0,21,0.00,,---,0.00,VWS V14.01,2013-05-16 20:08:00,
2013-05-16 15:13:00,82.4,38.6,29.91,East,90,2.5,2.5,21,0.00,,---,0.00,VWS V14.01,2013-05-16 20:13:00,
2013-05-16 15:18:00,82.6,38.7,29.91,ENE,68,0.9,3.8,21,0.00,,---,0.00,VWS V14.01,2013-05-16 20:18:00,
2013-05-16 15:24:00,82.4,38.6,29.91,East,90,3.4,3.4,21,0.00,,---,0.00,VWS V14.01,2013-05-16 20:24:00,
2013-05-16 15:29:00,82.4,38.6,29.91,NNE,22,1.1,3.4,21,0.00,,---,0.00,VWS V14.01,2013-05-16 20:29:00,
2013-05-16 15:35:00,82.6,38.7,29.91,NE,45,1.3,3.1,21,0.00,,---,0.00,VWS V14.01,2013-05-16 20:35:00,
2013-05-16 15:40:00,82.4,38.6,29.94,NNE,22,2.2,3.1,21,0.00,,---,0.00,VWS V14.01,2013-05-16 20:40:00,
2013-05-16 15:45:00,82.4,38.6,29.94,ENE,68,0.0,2.7,21,0.00,,---,0.00,VWS V14.01,2013-05-16 20:45:00,
2013-05-16 15:50:00,82.4,38.6,29.94,NE,45,2.9,4.3,21,0.00,,---,0.00,VWS V14.01,2013-05-16 20:50:00,
2013-05-16 15:56:00,82.4,38.6,29.94,NE,45,4.0,5.8,21,0.00,,---,0.00,VWS V14.01,2013-05-16 20:56:00,
2013-05-16 16:01:00,81.9,38.1,29.94,ENE,68,2.0,4.7,21,0.00,,---,0.00,VWS V14.01,2013-05-16 21:01:00,
2013-05-16 16:07:00,82.0,38.3,29.94,ENE,68,2.7,4.9,21,0.00,,---,0.00,VWS V14.01,2013-05-16 21:07:00,
2013-05-16 16:13:00,81.9,38.1,29.94,ESE,112,2.0,2.9,21,0.00,,---,0.00,VWS V14.01,2013-05-16 21:13:00,
2013-05-16 16:18:00,82.2,38.4,29.94,NE,45,5.4,5.4,21,0.00,,---,0.00,VWS V14.01,2013-05-16 21:18:00,
2013-05-16 16:23:00,82.0,38.3,29.94,ESE,112,4.9,4.9,21,0.00,,---,0.00,VWS V14.01,2013-05-16 21:23:00,
2013-05-16 16:28:00,82.0,38.3,29.94,North,0,4.7,4.7,21,0.00,,---,0.00,VWS V14.01,2013-05-16 21:28:00,
2013-05-16 16:33:00,82.4,38.6,29.94,SSE,158,4.7,4.7,21,0.00,,---,0.00,VWS V14.01,2013-05-16 21:33:00,
2013-05-16 16:39:00,81.9,38.1,29.94,SSE,158,2.9,2.9,21,0.00,,---,0.00,VWS V14.01,2013-05-16 21:39:00,
2013-05-16 16:45:00,81.9,38.1,29.94,South,180,1.6,1.6,21,0.00,,---,0.00,VWS V14.01,2013-05-16 21:45:00,
2013-05-16 16:50:00,81.9,38.1,29.94,SE,135,2.5,2.5,21,0.00,,---,0.00,VWS V14.01,2013-05-16 21:50:00,
2013-05-16 16:56:00,81.5,37.8,29.94,SE,135,2.2,3.8,21,0.00,,---,0.00,VWS V14.01,2013-05-16 21:56:00,
2013-05-16 17:01:00,81.3,37.7,29.94,South,180,3.1,3.1,21,0.00,,---,0.00,VWS V14.01,2013-05-16 22:01:00,
2013-05-16 17:06:00,81.5,37.8,29.94,NE,45,2.5,4.0,21,0.00,,---,0.00,VWS V14.01,2013-05-16 22:06:00,
2013-05-16 17:13:00,81.3,37.7,29.94,SSE,158,3.4,3.4,21,0.00,,---,0.00,VWS V14.01,2013-05-16 22:13:00,
2013-05-16 17:18:00,81.0,37.4,29.94,NE,45,0.0,2.5,21,0.00,,---,0.00,VWS V14.01,2013-05-16 22:18:00,
2013-05-16 17:23:00,80.8,37.2,29.94,East,90,2.5,4.0,21,0.00,,---,0.00,VWS V14.01,2013-05-16 22:23:00,
2013-05-16 17:30:00,80.8,37.2,29.91,SSE,158,2.9,2.9,21,0.00,,---,0.00,VWS V14.01,2013-05-16 22:30:00,
2013-05-16 17:35:00,80.6,37.1,29.91,ESE,112,2.0,2.5,21,0.00,,---,0.00,VWS V14.01,2013-05-16 22:35:00,
2013-05-16 17:41:00,80.4,37.0,29.91,ENE,68,2.0,2.0,21,0.00,,---,0.00,VWS V14.01,2013-05-16 22:41:00,
2013-05-16 17:46:00,80.1,36.7,29.91,NE,45,0.9,1.1,21,0.00,,---,0.00,VWS V14.01,2013-05-16 22:46:00,
2013-05-16 17:52:00,80.1,36.7,29.91,ESE,112,1.3,1.3,21,0.00,,---,0.00,VWS V14.01,2013-05-16 22:52:00,
2013-05-16 17:58:00,79.7,36.3,29.91,ENE,68,3.1,3.6,21,0.00,,---,0.00,VWS V14.01,2013-05-16 22:58:00,
2013-05-16 18:03:00,79.5,36.2,29.91,East,90,2.2,3.8,21,0.00,,---,0.00,VWS V14.01,2013-05-16 23:03:00,
2013-05-16 18:09:00,79.3,37.2,29.91,WNW,292,2.7,2.7,22,0.00,,---,0.00,VWS V14.01,2013-05-16 23:09:00,
2013-05-16 18:14:00,79.2,37.1,29.94,NE,45,4.7,4.7,22,0.00,,---,0.00,VWS V14.01,2013-05-16 23:14:00,
2013-05-16 18:20:00,79.0,36.9,29.94,WSW,248,1.6,2.5,22,0.00,,---,0.00,VWS V14.01,2013-05-16 23:20:00,
2013-05-16 18:25:00,78.8,36.8,29.91,NNE,22,2.7,2.9,22,0.00,,---,0.00,VWS V14.01,2013-05-16 23:25:00,
2013-05-16 18:30:00,78.6,36.6,29.91,North,0,3.8,4.7,22,0.00,,---,0.00,VWS V14.01,2013-05-16 23:30:00,
2013-05-16 18:36:00,78.3,36.3,29.91,NE,45,3.6,4.5,22,0.00,,---,0.00,VWS V14.01,2013-05-16 23:36:00,
2013-05-16 18:41:00,78.1,36.2,29.91,North,0,2.2,3.8,22,0.00,,---,0.00,VWS V14.01,2013-05-16 23:41:00,
2013-05-16 18:47:00,77.9,36.0,29.91,NE,45,5.4,5.4,22,0.00,,---,0.00,VWS V14.01,2013-05-16 23:47:00,
2013-05-16 18:52:00,77.7,35.9,29.91,ENE,68,1.3,2.5,22,0.00,,---,0.00,VWS V14.01,2013-05-16 23:52:00,
2013-05-16 18:58:00,77.7,35.9,29.91,NW,315,2.0,2.7,22,0.00,,---,0.00,VWS V14.01,2013-05-16 23:58:00,
2013-05-16 19:03:00,77.5,35.7,29.91,ESE,112,1.1,2.5,22,0.00,,---,0.00,VWS V14.01,2013-05-17 00:03:00,
2013-05-16 19:08:00,77.4,35.6,29.91,NE,45,2.9,2.9,22,0.00,,---,0.00,VWS V14.01,2013-05-17 00:08:00,
2013-05-16 19:14:00,77.2,35.4,29.91,ENE,68,2.2,3.8,22,0.00,,---,0.00,VWS V14.01,2013-05-17 00:14:00,
2013-05-16 19:20:00,77.2,35.4,29.91,NNE,22,2.7,4.0,22,0.00,,---,0.00,VWS V14.01,2013-05-17 00:20:00,
2013-05-16 19:25:00,77.2,35.4,29.94,NNW,338,1.6,2.9,22,0.00,,---,0.00,VWS V14.01,2013-05-17 00:25:00,
2013-05-16 19:31:00,76.6,36.1,29.94,NE,45,4.0,4.7,23,0.00,,---,0.00,VWS V14.01,2013-05-17 00:31:00,
2013-05-16 19:36:00,76.5,36.0,29.94,NE,45,2.0,3.4,23,0.00,,---,0.00,VWS V14.01,2013-05-17 00:36:00,
2013-05-16 19:42:00,76.3,35.8,29.94,NE,45,3.4,3.4,23,0.00,,---,0.00,VWS V14.01,2013-05-17 00:42:00,
2013-05-16 19:48:00,76.1,35.7,29.94,NE,45,2.5,2.5,23,0.00,,---,0.00,VWS V14.01,2013-05-17 00:48:00,
2013-05-16 19:54:00,75.9,35.5,29.94,NE,45,2.0,2.2,23,0.00,,---,0.00,VWS V14.01,2013-05-17 00:54:00,
2013-05-16 19:59:00,75.7,35.3,29.94,NE,45,2.0,2.0,23,0.00,,---,0.00,VWS V14.01,2013-05-17 00:59:00,
2013-05-16 20:04:00,75.6,35.2,29.94,NE,45,3.6,3.6,23,0.00,,---,0.00,VWS V14.01,2013-05-17 01:04:00,
2013-05-16 20:10:00,75.6,35.2,29.94,NE,45,2.0,2.9,23,0.00,,---,0.00,VWS V14.01,2013-05-17 01:10:00,
2013-05-16 20:15:00,75.6,35.2,29.94,East,90,2.9,3.6,23,0.00,,---,0.00,VWS V14.01,2013-05-17 01:15:00,
2013-05-16 20:22:00,75.4,35.0,29.94,NE,45,2.7,2.7,23,0.00,,---,0.00,VWS V14.01,2013-05-17 01:22:00,
2013-05-16 20:27:00,75.0,35.8,29.94,ESE,112,1.1,3.6,24,0.00,,---,0.00,VWS V14.01,2013-05-17 01:27:00,
2013-05-16 20:32:00,74.8,34.6,29.94,ENE,68,2.0,3.8,23,0.00,,---,0.00,VWS V14.01,2013-05-17 01:32:00,
2013-05-16 20:38:00,74.7,34.4,29.94,ENE,68,6.3,7.6,23,0.00,,---,0.00,VWS V14.01,2013-05-17 01:38:00,
2013-05-16 20:44:00,74.3,34.1,29.94,NE,45,2.2,5.6,23,0.00,,---,0.00,VWS V14.01,2013-05-17 01:44:00,
2013-05-16 20:49:00,74.1,34.0,29.94,ENE,68,5.8,7.4,23,0.00,,---,0.00,VWS V14.01,2013-05-17 01:49:00,
2013-05-16 20:54:00,73.8,33.7,29.94,NNE,22,3.1,6.5,23,0.00,,---,0.00,VWS V14.01,2013-05-17 01:54:00,
2013-05-16 20:59:00,73.6,33.5,29.94,ENE,68,2.2,3.8,23,0.00,,---,0.00,VWS V14.01,2013-05-17 01:59:00,
2013-05-16 21:06:00,73.4,32.3,29.94,SE,135,3.4,4.7,22,0.00,,---,0.00,VWS V14.01,2013-05-17 02:06:00,
2013-05-16 21:11:00,73.2,33.2,29.94,NE,45,5.8,5.8,23,0.00,,---,0.00,VWS V14.01,2013-05-17 02:11:00,
2013-05-16 21:16:00,72.9,32.9,29.94,NE,45,7.6,7.6,23,0.00,,---,0.00,VWS V14.01,2013-05-17 02:16:00,
2013-05-16 21:21:00,72.7,32.8,29.94,East,90,4.7,4.7,23,0.00,,---,0.00,VWS V14.01,2013-05-17 02:21:00,
2013-05-16 21:27:00,72.5,31.5,29.97,ESE,112,3.4,3.6,22,0.00,,---,0.00,VWS V14.01,2013-05-17 02:27:00,
2013-05-16 21:32:00,72.1,31.2,29.97,NNE,22,4.3,10.7,22,0.00,,---,0.00,VWS V14.01,2013-05-17 02:32:00,
2013-05-16 21:38:00,72.0,31.1,29.97,ESE,112,5.8,5.8,22,0.00,,---,0.00,VWS V14.01,2013-05-17 02:38:00,
2013-05-16 21:43:00,71.6,30.8,29.94,ENE,68,3.4,3.6,22,0.00,,---,0.00,VWS V14.01,2013-05-17 02:43:00,
2013-05-16 21:48:00,71.4,31.7,29.94,ENE,68,3.1,3.1,23,0.00,,---,0.00,VWS V14.01,2013-05-17 02:48:00,
2013-05-16 21:53:00,71.2,31.6,29.94,East,90,3.1,5.4,23,0.00,,---,0.00,VWS V14.01,2013-05-17 02:53:00,
2013-05-16 21:59:00,71.1,31.4,29.94,SSE,158,4.3,4.3,23,0.00,,---,0.00,VWS V14.01,2013-05-17 02:59:00,
2013-05-16 22:04:00,70.9,31.3,29.94,NE,45,4.9,5.8,23,0.00,,---,0.00,VWS V14.01,2013-05-17 03:04:00,
2013-05-16 22:10:00,70.7,31.1,29.97,East,90,3.6,3.6,23,0.00,,---,0.00,VWS V14.01,2013-05-17 03:10:00,
2013-05-16 22:16:00,70.5,31.0,29.97,NNE,22,5.4,5.4,23,0.00,,---,0.00,VWS V14.01,2013-05-17 03:16:00,
2013-05-16 22:21:00,70.3,29.7,29.97,ENE,68,3.1,4.0,22,0.00,,---,0.00,VWS V14.01,2013-05-17 03:21:00,
2013-05-16 22:27:00,70.2,29.6,29.94,NE,45,3.6,4.9,22,0.00,,---,0.00,VWS V14.01,2013-05-17 03:27:00,
2013-05-16 22:32:00,70.0,29.4,29.94,SE,135,3.1,4.5,22,0.00,,---,0.00,VWS V14.01,2013-05-17 03:32:00,
2013-05-16 22:37:00,69.8,29.3,29.94,ESE,112,6.0,6.3,22,0.00,,---,0.00,VWS V14.01,2013-05-17 03:37:00,
2013-05-16 22:42:00,69.8,29.3,29.94,NNE,22,3.4,6.3,22,0.00,,---,0.00,VWS V14.01,2013-05-17 03:42:00,
2013-05-16 22:48:00,69.6,30.2,29.94,ESE,112,2.0,2.9,23,0.00,,---,0.00,VWS V14.01,2013-05-17 03:48:00,
2013-05-16 22:53:00,69.4,30.1,29.94,ENE,68,3.6,10.3,23,0.00,,---,0.00,VWS V14.01,2013-05-17 03:53:00,
2013-05-16 22:59:00,69.3,29.9,29.97,ENE,68,3.6,3.8,23,0.00,,---,0.00,VWS V14.01,2013-05-17 03:59:00,
2013-05-16 23:01:00,69.3,29.9,29.97,NE,45,2.7,5.4,23,0.00,,---,0.00,VWS V14.01,2013-05-17 04:01:00,
2013-05-16 23:02:00,69.3,29.9,29.97,South,180,4.9,5.8,23,0.00,,---,0.00,VWS V14.01,2013-05-17 04:02:00,
2013-05-16 23:03:00,69.3,29.9,29.97,ENE,68,0.0,4.9,23,0.00,,---,0.00,VWS V14.01,2013-05-17 04:03:00,
2013-05-16 23:04:00,69.3,29.9,29.97,ENE,68,3.1,3.1,23,0.00,,---,0.00,VWS V14.01,2013-05-17 04:04:00,
2013-05-16 23:05:00,69.3,29.9,29.97,SSE,158,2.5,3.6,23,0.00,,---,0.00,VWS V14.01,2013-05-17 04:05:00,
2013-05-16 23:10:00,69.1,29.8,29.97,NE,45,2.5,7.2,23,0.00,,---,0.00,VWS V14.01,2013-05-17 04:10:00,
2013-05-16 23:16:00,68.9,29.6,29.97,East,90,3.4,4.0,23,0.00,,---,0.00,VWS V14.01,2013-05-17 04:16:00,
2013-05-16 23:22:00,68.7,29.5,29.97,ENE,68,3.1,3.1,23,0.00,,---,0.00,VWS V14.01,2013-05-17 04:22:00,
2013-05-16 23:27:00,68.5,29.3,29.94,East,90,2.5,4.0,23,0.00,,---,0.00,VWS V14.01,2013-05-17 04:27:00,
2013-05-16 23:32:00,68.5,29.3,29.94,ENE,68,2.5,3.4,23,0.00,,---,0.00,VWS V14.01,2013-05-17 04:32:00,
2013-05-16 23:38:00,68.5,29.3,29.94,ESE,112,3.1,3.4,23,0.00,,---,0.00,VWS V14.01,2013-05-17 04:38:00,
2013-05-16 23:44:00,68.4,29.1,29.94,ENE,68,2.5,6.0,23,0.00,,---,0.00,VWS V14.01,2013-05-17 04:44:00,
2013-05-16 23:49:00,68.4,29.1,29.94,NE,45,3.8,4.9,23,0.00,,---,0.00,VWS V14.01,2013-05-17 04:49:00,
2013-05-16 23:55:00,68.2,29.0,29.97,SE,135,1.1,3.1,23,0.00,,---,0.00,VWS V14.01,2013-05-17 04:55:00,